McCook, NE

7:45 AM CDT on October 22, 2017 (GMT -0500)
McCook Municipal

Weather History for KMCK - October, 2013

Change the Weather History Date:

Wednesday, October 23, 2013

  Actual Average Record
Temperature  
Mean Temperature 52 °F 49 °F  
Max Temperature 71 °F 64 °F 86 °F (1975)
Min Temperature 33 °F 34 °F 18 °F (1938)
Degree Days  
Heating Degree Days 13    
Growing Degree Days 2 (Base 50)    
Moisture  
Dew Point 35 °F    
Average Humidity 61    
Maximum Humidity 89    
Minimum Humidity 28    
Precipitation  
Precipitation 0.00 in 0.05 in 0.90 in (1957)
Month to date precipitation 0.58 1.39  
Year to date precipitation 12.10 20.54  
Sea Level Pressure  
Sea Level Pressure 30.11 in    
Wind  
Wind Speed 6 mph (NNE)    
Max Wind Speed 21 mph    
Max Gust Speed 29 mph    
Visibility 10 miles    
Events      
T = Trace of Precipitation, MM = Missing Value Source: NWS Daily Summary

Daily Weather History Graph

Daily Weather History Graph

Search for Another Location

Airport or City:

Trip Planner

Search our weather history database for the weather conditions in past years. The results will help you decide how hot, cold, wet, or windy it might be!

Date:

Astronomy

Oct. 23, 2013 Rise Set
Actual Time 8:01 AM CDT 6:50 PM CDT
Civil Twilight 7:34 AM CDT 7:18 PM CDT
Nautical Twilight 7:02 AM CDT 7:50 PM CDT
Astronomical Twilight 6:31 AM CDT 8:21 PM CDT
Moon 10:23 PM CDT (10/23) 12:20 PM CDT (10/23)
Length of Visible Light 11h 44m
Length of Day
10h 48m
Waning Gibbous, 79% of the Moon is Illuminated
Oct 23
Waning Gibbous
Oct 26
Last Quarter
Nov 3
New
Nov 9
First Quarter
Nov 17
Full

Hourly Weather History & Observations

Time (CDT) Temp. Windchill Dew Point Humidity Pressure Visibility Wind Dir Wind Speed Gust Speed Precip Events Conditions
12:53 AM 42.1 °F 40.2 °F 34.0 °F 73% 30.12 in 10.0 mi East 3.5 mph - N/A   Clear
1:53 AM 42.1 °F 39.2 °F 35.1 °F 76% 30.13 in 10.0 mi ENE 4.6 mph - N/A   Clear
2:53 AM 42.1 °F 40.2 °F 35.1 °F 76% 30.12 in 10.0 mi ESE 3.5 mph - N/A   Clear
3:53 AM 41.0 °F 37.1 °F 35.1 °F 79% 30.10 in 10.0 mi South 5.8 mph - N/A   Clear
4:53 AM 39.0 °F - 34.0 °F 82% 30.09 in 10.0 mi Calm Calm - N/A   Clear
5:53 AM 37.9 °F - 33.1 °F 83% 30.10 in 10.0 mi Calm Calm - N/A   Clear
6:53 AM 34.0 °F - 30.9 °F 89% 30.11 in 10.0 mi Calm Calm - N/A   Clear
7:53 AM 35.1 °F - 32.0 °F 89% 30.10 in 10.0 mi Calm Calm - N/A   Clear
8:53 AM 37.0 °F 31.6 °F 34.0 °F 89% 30.09 in 10.0 mi South 6.9 mph - N/A   Clear
9:53 AM 43.0 °F 38.8 °F 36.0 °F 76% 30.11 in 10.0 mi West 6.9 mph - N/A   Clear
10:53 AM 50.0 °F - 37.0 °F 61% 30.10 in 10.0 mi West 8.1 mph - N/A   Clear
11:53 AM 59.0 °F - 39.9 °F 49% 30.07 in 10.0 mi WNW 8.1 mph - N/A   Clear
12:53 PM 68.0 °F - 37.9 °F 33% 30.06 in 10.0 mi NNW 13.8 mph 28.8 mph N/A   Clear
1:53 PM 69.1 °F - 36.0 °F 30% 30.04 in 10.0 mi NW 16.1 mph 25.3 mph N/A   Clear
2:53 PM 70.0 °F - 36.0 °F 29% 30.03 in 10.0 mi NNW 19.6 mph 24.2 mph N/A   Clear
3:53 PM 70.0 °F - 35.1 °F 28% 30.04 in 10.0 mi NNW 20.7 mph 27.6 mph N/A   Clear
4:53 PM 68.0 °F - 36.0 °F 31% 30.06 in 10.0 mi North 19.6 mph 27.6 mph N/A   Clear
5:53 PM 64.9 °F - 36.0 °F 34% 30.08 in 10.0 mi North 13.8 mph - N/A   Clear
6:53 PM 57.9 °F - 36.0 °F 44% 30.12 in 10.0 mi NNE 12.7 mph - N/A   Clear
7:53 PM 52.0 °F - 35.1 °F 53% 30.16 in 10.0 mi NNE 11.5 mph - N/A   Clear
8:53 PM 50.0 °F - 35.1 °F 57% 30.19 in 10.0 mi East 4.6 mph - N/A   Clear
9:53 PM 46.9 °F - 35.1 °F 63% 30.22 in 10.0 mi ENE 6.9 mph - N/A   Clear
10:53 PM 44.1 °F 39.0 °F 35.1 °F 71% 30.23 in 10.0 mi NE 9.2 mph - N/A   Clear
11:53 PM 41.0 °F - 34.0 °F 76% 30.26 in 10.0 mi Calm Calm - N/A   Clear